USA 342

Last updated on Thu Oct 10 2024 00:02:42 GMT+0000 (Coordinated Universal Time)

1 55263U 23008A 24283.26507681 .00000146 00000+0 00000+0 0 9997 2 55263 0.0186 224.6738 0000331 24.6272 248.2909 1.00271750 1222
UTC large
Height (km)
Speed (km/s)
/
Latitude / Longitude
Inclination (degrees)
Orbital Period (minutes)
Azimuth
Elevation
Range (km)
Doppler Factor

Next 0 passes for location: London (51.5072 / 0.1276)

Sorry there are no passes over London.